Home > Weather > Santa María > Past weeks

Flag for Brazil Past Weather in Santa María, Rio Grande do Sul, Brazil — Yesterday and Last 2 Weeks

Now
46 °F

Fog.


Feels Like: 46 °F
Forecast: 45 / 71 °F
Wind: No wind

Location: Porto Alegre Aero-Porto

Current Time: Jul 23, 2016 at 10:11:08 AM

Latest Report: Jul 23, 2016 at 9:00 AM


Visibility: 0 mi

Pressure: N/A

Humidity: 93%

Dew Point: 45 °F

Location of Santa MaríaLocation

Past Weather in Santa María — Graph

°F

Santa María Temperature Yesterday

Maximum temperature yesterday: 59 °F (at 4:00 PM)
Minimum temperature yesterday: 48 °F (at 2:00 AM)
Average temperature yesterday: 52 °F

High & Low Weather Summary for the Past Weeks

 TemperatureHumidityPressure
High66 °F (Jul 8, 3:00 PM)100% (Jul 9, 7:00 AM)30.33 "Hg (Jul 9, 7:00 AM)
Low39 °F (Jul 11, 3:00 AM)41% (Jul 15, 1:00 AM)29.71 "Hg (Jul 11, 6:00 PM)
Average54 °F84%30.09 "Hg
* Reported Jul 8 9:00 AM — Jul 23 9:00 AM, Santa María, Weather by CustomWeather, © 2016

Note: Actual official high and low records may vary slightly from our data, if they occured in-between our weather recording intervals... More about our weather records

Advertising

Santa María Weather History for the Previous 24 Hours

Scroll right to see more
 ConditionsComfort  
Time TempWeatherWind HumidityBarometerVisibility
9:00 AM
Sat, Jul 23
46 °FFog.No wind93%N/A0 mi
8:00 AM45 °FFog.No wind100%N/A0 mi
7:00 AM45 °FFog.No wind100%N/A1 mi
6:00 AM46 °FFog.1 mph93%N/A1 mi
5:00 AM46 °FFog.2 mph93%N/A1 mi
4:00 AM46 °FFog.3 mph100%N/A1 mi
3:00 AM48 °FFog.5 mph94%N/A1 mi
2:00 AM46 °FFog.2 mph93%30.12 "Hg2 mi
1:00 AM46 °FClear.3 mph93%30.15 "Hg10 mi
12:00 AM48 °FClear.5 mph94%30.15 "Hg10 mi
11:00 PM
Fri, Jul 22
50 °FClear.6 mph88%30.15 "Hg10 mi
10:00 PM50 °FClear.6 mph88%30.15 "Hg10 mi
9:00 PM52 °FClear.8 mph82%30.15 "Hg10 mi
8:00 PM52 °FClear.8 mph82%30.15 "Hg10 mi
7:00 PM54 °FClear.6 mph77%30.15 "Hg10 mi
6:00 PM55 °FPassing clouds.5 mph72%30.15 "HgN/A
5:00 PM57 °FClear.9 mph63%30.15 "Hg10 mi
4:00 PM59 °FPassing clouds.6 mph59%30.15 "HgN/A
3:00 PM57 °FPassing clouds.7 mph63%30.18 "HgN/A
2:00 PM57 °FPassing clouds.9 mph63%30.18 "HgN/A
1:00 PM55 °FSunny.7 mph67%30.24 "Hg10 mi
12:00 PM54 °FPassing clouds.6 mph72%30.27 "Hg6 mi
11:00 AM52 °FPartly sunny.2 mph82%30.27 "Hg5 mi
10:00 AM48 °FLow clouds.2 mph87%30.27 "Hg5 mi
Weather by CustomWeather, © 2016

See weather overviewHow to use our weather pages